[[{"header":{"parameterUnit":"m.s-1","parameterCategory":1,"la1":30.2991,"la2":30.254,"lo1":-89.0895,"lo2":-89.0444,"dy":0.0017,"dx":0.0017,"nx":28,"ny":28,"refTime":"2025-08-21T03:00:00:Z","depth":0,"parameterNumber":2,"parameterNumberName":"U-component_of_WINDS"},"data":[0,0,0,0,0,0,0,0,0,0,0,0,0,0,0,0,0,0,0,0,0,0,0,0,0,0,0,0,0,0,0,0,0,0,0,0,0,0,0,0,0,0,0,0,0,0,0,0,0,0,0,0,0,0,0,0,0,0,0.3056,0.3056,0,0.3113,0.3114,0.3115,0.3144,0.3144,0.3144,0.3144,0.3201,0.3202,0.3204,0,0,0,0,0,0,0,0,0,0,0,0,0,0.2968,0.297,0.3056,0.3056,0.3057,0.3113,0.3114,0.3115,0.3144,0.3144,0.3144,0.3144,0.32,0.3202,0.3204,0,0,0,0,0,0,0,0,0,0,0,0,0,0.3014,0.297,0.3056,0.3078,0.3081,0.3113,0.3114,0.3115,0.3144,0.3144,0.3144,0.3144,0.32,0.3202,0.3204,0.3217,0,0,0.3211,0.3212,0,0,0,0,0,0,0,0,0.3011,0.3017,0.3074,0.3077,0.308,0.3122,0.3104,0.3149,0.3144,0.312,0.3144,0.3144,0.3174,0.3179,0.3189,0.322,0.3222,0.3211,0.3212,0.3213,0.3214,0,0,0,0,0,0,0,0.3008,0.3015,0.3078,0.3075,0.3079,0.3085,0.3092,0.3113,0.3146,0.3122,0.3124,0.3131,0.3176,0.3187,0.3191,0.3223,0.3211,0.3213,0.3214,0.3215,0.3266,0.3266,0,0,0,0,0,0,0.3002,0.3012,0.3077,0.308,0.3045,0.3087,0.3094,0.3108,0.3146,0.3152,0.3131,0.3132,0.3183,0.3188,0.3193,0.321,0.3213,0.3215,0.3217,0.3266,0.3266,0.3266,0,0,0,0,0,0,0.3,0.3007,0.3074,0.3047,0.3056,0.3088,0.3104,0.3109,0.3121,0.3153,0.3158,0.3136,0.3183,0.319,0.3211,0.3212,0.3216,0.3219,0.3266,0.3266,0.3266,0.3245,0,0,0,0,0,0,0.2997,0.3006,0.3012,0.3047,0.3057,0.3092,0.3104,0.311,0.3124,0.3127,0.3159,0.3165,0.3184,0.3207,0.3213,0.3216,0.322,0.3266,0.3266,0.3266,0.3245,0.3244,0.3243,0,0,0,0,0,0.2994,0.3004,0.3012,0.302,0.3065,0.3092,0.3098,0.312,0.3125,0.313,0.3151,0.3164,0.3211,0.3209,0.3216,0.3219,0.3266,0.3266,0.3266,0.3246,0.3244,0.3243,0,0,0,0,0,0,0.2968,0.3009,0.3019,0.304,0.3062,0.3097,0.3105,0.3118,0.3139,0.314,0.3166,0.3173,0.3192,0.3208,0.3204,0.3233,0.324,0.3241,0.3222,0.3221,0.322,0.3216,0.3222,0,0,0,0,0,0.2964,0.2984,0.3018,0.3033,0.3044,0.3072,0.3085,0.31,0.3124,0.3133,0.3156,0.3178,0.3197,0.321,0.323,0.3248,0.3255,0.3253,0.3252,0.325,0.3251,0.3261,0.3261,0.3266,0.3266,0.3266,0,0,0.2958,0.2983,0.2993,0.3029,0.3048,0.3066,0.308,0.3099,0.3113,0.3136,0.3158,0.3174,0.32,0.322,0.3229,0.3233,0.3251,0.325,0.3249,0.3251,0.3261,0.3261,0.326,0.3266,0.3266,0.3266,0,0,0.2955,0.2976,0.2991,0.301,0.3039,0.3058,0.3061,0.3094,0.3106,0.3128,0.3146,0.3162,0.3196,0.3214,0.3227,0.323,0.3243,0.3236,0.3229,0.3239,0.3238,0.3238,0.3239,0.3239,0.3237,0.3237,0.3237,0,0.2943,0.2973,0.2997,0.3015,0.303,0.3053,0.3067,0.3084,0.3118,0.3127,0.3131,0.3174,0.3193,0.3217,0.3217,0.3228,0.3232,0.3233,0.3236,0.3236,0.3237,0.3238,0.3238,0.3236,0.3236,0.3236,0.3236,0,0.2956,0.2976,0.2984,0.3017,0.3033,0.3049,0.3075,0.3088,0.3102,0.312,0.3141,0.3165,0.319,0.3197,0.321,0.3222,0.3223,0.3232,0.3239,0.3235,0.3236,0.3237,0.3234,0.3235,0.3235,0.3235,0,0,0.2939,0.2985,0.2988,0.3003,0.3036,0.3051,0.3068,0.3093,0.3104,0.3126,0.314,0.3168,0.3176,0.3191,0.3206,0.3214,0.3215,0.3222,0.3223,0.3219,0.3229,0.3222,0.3223,0.3223,0.3224,0.3224,0.3226,0,0.2941,0.2974,0.2996,0.3019,0.3037,0.3059,0.3073,0.3095,0.3111,0.3129,0.3147,0.3166,0.3175,0.3184,0.3193,0.3213,0.3217,0.3213,0.3236,0.3237,0.3229,0.3223,0.3217,0.3218,0.3227,0.3227,0.3227,0,0.2948,0.2971,0.2996,0.3027,0.3035,0.3048,0.3073,0.3089,0.3113,0.3125,0.3142,0.3158,0.3175,0.318,0.3205,0.3201,0.3212,0.3223,0.3223,0.3227,0.3232,0.3226,0.322,0.322,0.3229,0.3229,0.3228,0,0.2933,0.2969,0.2989,0.3001,0.3038,0.3046,0.3062,0.3086,0.31,0.3121,0.313,0.3152,0.3164,0.3181,0.3202,0.3204,0.3224,0.3231,0.3234,0.3233,0.3237,0.3237,0.3232,0.3244,0.3244,0.3244,0.3244,0,0.2933,0.2948,0.2983,0.2995,0.3012,0.3036,0.3052,0.3069,0.309,0.3105,0.3125,0.3138,0.3165,0.3182,0.3198,0.3215,0.3221,0.323,0.3234,0.3229,0.3227,0.3236,0.3236,0.3244,0.3244,0.3244,0.3244,0,0.292,0.2944,0.2967,0.3,0.3008,0.3019,0.3047,0.3058,0.3076,0.3095,0.3101,0.3128,0.3149,0.3171,0.3199,0.321,0.3226,0.3232,0.3218,0.3221,0.3222,0.3221,0.3223,0.3224,0.3234,0.3234,0.3234,0,0.2918,0.293,0.2964,0.2976,0.2992,0.301,0.3024,0.3049,0.3062,0.3091,0.3099,0.3121,0.314,0.3171,0.3193,0.3214,0.3221,0.322,0.3224,0.3218,0.3221,0.322,0.3221,0.3219,0.3218,0.3218,0.3218,0,0.2913,0.2924,0.2945,0.2969,0.2985,0.3005,0.3025,0.3034,0.3062,0.3076,0.3097,0.3112,0.314,0.3162,0.3185,0.32,0.3213,0.3216,0.3218,0.3212,0.3204,0.3208,0.3215,0.3216,0.3216,0.3217,0.3217,0.3217,0.2906,0.2917,0.2943,0.2964,0.2982,0.3001,0.3014,0.3033,0.3052,0.3078,0.309,0.3112,0.3135,0.3168,0.3182,0.3199,0.3203,0.3205,0.3206,0.3206,0.3204,0.3201,0.3203,0.3203,0.3203,0.3203,0.3203,0,0.2901,0.2919,0.2939,0.2967,0.2984,0.2995,0.3018,0.3031,0.305,0.3071,0.3089,0.3113,0.3134,0.3157,0.3179,0.3187,0.3194,0.3192,0.3192,0.3195,0.32,0.3196,0.3186,0.3186,0.3186,0.3187,0.3187,0.3187,0.2901,0.2921,0.2935,0.2964,0.2981,0.3003,0.3015,0.3032,0.3049,0.3075,0.3092,0.3108,0.3129,0.3153,0.3172,0.3178,0.3185,0.3181,0.3189,0.3193,0.3195,0.3196,0.3193,0.3183,0.3183,0.3184,0.3184,0.3184]},{"header":{"parameterUnit":"m.s-1","parameterCategory":1,"la1":30.2991,"la2":30.254,"lo1":-89.0895,"lo2":-89.0444,"dy":0.0017,"dx":0.0017,"nx":28,"ny":28,"refTime":"2025-08-21T03:00:00:Z","depth":0,"parameterNumber":3,"parameterNumberName":"V-component_of_WINDS"},"data":[0,0,0,0,0,0,0,0,0,0,0,0,0,0,0,0,0,0,0,0,0,0,0,0,0,0,0,0,0,0,0,0,0,0,0,0,0,0,0,0,0,0,0,0,0,0,0,0,0,0,0,0,0,0,0,0,0,0,2.5752,2.5751,0,2.5686,2.5685,2.5684,2.5664,2.5664,2.5664,2.5665,2.5591,2.5589,2.5587,0,0,0,0,0,0,0,0,0,0,0,0,0,2.5853,2.5851,2.5752,2.5751,2.575,2.5686,2.5685,2.5684,2.5664,2.5664,2.5664,2.5665,2.5592,2.5589,2.5586,0,0,0,0,0,0,0,0,0,0,0,0,0,2.58,2.585,2.5752,2.5732,2.573,2.5686,2.5685,2.5684,2.5664,2.5664,2.5665,2.5665,2.5593,2.5589,2.5586,2.5555,0,0,2.5576,2.5574,0,0,0,0,0,0,0,0,2.5803,2.5796,2.5736,2.5733,2.5731,2.5684,2.5694,2.5641,2.5663,2.5688,2.5665,2.5665,2.5621,2.5615,2.5602,2.5552,2.5549,2.5575,2.5573,2.5572,2.5571,0,0,0,0,0,0,0,2.5807,2.5799,2.5725,2.5735,2.5732,2.5725,2.5718,2.5684,2.5653,2.5686,2.5685,2.5678,2.562,2.5605,2.56,2.5548,2.5575,2.5572,2.557,2.5569,2.5468,2.5468,0,0,0,0,0,0,2.5815,2.5802,2.5728,2.5723,2.5769,2.5722,2.5715,2.5698,2.5653,2.5647,2.5677,2.5677,2.5611,2.5604,2.5597,2.5558,2.5572,2.5569,2.5567,2.5469,2.5468,2.5467,0,0,0,0,0,0,2.5817,2.5808,2.573,2.5762,2.5752,2.572,2.5702,2.5697,2.5682,2.5646,2.564,2.5669,2.5611,2.5602,2.5566,2.5555,2.5567,2.5564,2.547,2.5469,2.5468,2.5479,0,0,0,0,0,0,2.582,2.5809,2.5799,2.5762,2.575,2.5702,2.5701,2.5695,2.5677,2.5676,2.5636,2.563,2.561,2.5571,2.5563,2.5551,2.5561,2.547,2.5469,2.5468,2.548,2.5479,2.5478,0,0,0,0,0,2.5824,2.5803,2.5798,2.5789,2.5737,2.5702,2.5695,2.5674,2.5676,2.5664,2.5641,2.5631,2.5558,2.5568,2.5558,2.5545,2.5471,2.547,2.5468,2.548,2.5479,2.5478,0,0,0,0,0,0,2.5837,2.5798,2.5792,2.576,2.5735,2.5698,2.5683,2.5674,2.5646,2.5645,2.5619,2.561,2.5576,2.5557,2.5569,2.5512,2.5514,2.551,2.5526,2.5525,2.5524,2.5529,2.5559,0,0,0,0,0,2.5836,2.5813,2.578,2.5754,2.5742,2.5715,2.5699,2.5685,2.5657,2.5646,2.562,2.5591,2.5561,2.5542,2.5513,2.5477,2.5467,2.5463,2.5462,2.5462,2.5459,2.5437,2.5435,2.5463,2.5463,2.5463,0,0,2.5834,2.581,2.5797,2.5756,2.5735,2.571,2.5706,2.5679,2.5659,2.5641,2.5606,2.5586,2.5552,2.5516,2.5499,2.5498,2.5449,2.546,2.546,2.5457,2.5436,2.5433,2.5431,2.5462,2.5462,2.5462,0,0,2.5818,2.5798,2.5775,2.5754,2.5723,2.5705,2.5699,2.5664,2.5651,2.5616,2.5602,2.5576,2.5526,2.5502,2.5484,2.5458,2.5447,2.5449,2.5444,2.5424,2.5422,2.542,2.541,2.5407,2.5446,2.5446,2.5446,0,2.5819,2.5782,2.5763,2.5738,2.5719,2.5704,2.5679,2.5659,2.5618,2.5605,2.5606,2.5543,2.5519,2.5477,2.5471,2.5456,2.5448,2.5453,2.5424,2.5422,2.542,2.541,2.5406,2.5447,2.5447,2.5447,2.5447,0,2.5784,2.5759,2.5743,2.5707,2.5688,2.5662,2.5638,2.5619,2.5608,2.5589,2.5553,2.5524,2.5488,2.5477,2.5464,2.5433,2.5434,2.543,2.5431,2.5418,2.5408,2.5404,2.5447,2.5447,2.5447,2.5447,0,0,2.5774,2.5729,2.5723,2.5706,2.5671,2.5649,2.5623,2.559,2.5574,2.5547,2.5523,2.5481,2.5477,2.5456,2.544,2.5422,2.5403,2.542,2.5419,2.5418,2.5365,2.5368,2.5365,2.5396,2.5396,2.5395,2.5368,0,2.5753,2.5707,2.5689,2.5651,2.5626,2.5611,2.5587,2.5561,2.5543,2.5518,2.5496,2.5467,2.5465,2.5452,2.5434,2.541,2.5392,2.5411,2.5372,2.537,2.538,2.536,2.5363,2.5339,2.5364,2.5364,2.5363,0,2.5721,2.5696,2.5656,2.5623,2.5612,2.5592,2.556,2.5537,2.5507,2.5494,2.5471,2.5457,2.5426,2.543,2.5386,2.5399,2.5382,2.5367,2.5366,2.5361,2.5366,2.5353,2.5331,2.5327,2.5357,2.5358,2.5358,0,2.5717,2.5673,2.5643,2.5629,2.559,2.5576,2.5559,2.553,2.5511,2.5482,2.547,2.5437,2.5419,2.5393,2.537,2.5375,2.5328,2.533,2.5315,2.5316,2.5305,2.5306,2.5279,2.5295,2.5295,2.5296,2.5296,0,2.5695,2.5671,2.5641,2.5623,2.5594,2.5573,2.5545,2.5527,2.5501,2.5477,2.5461,2.5438,2.5409,2.5382,2.5363,2.5329,2.5321,2.5309,2.5304,2.531,2.5312,2.5298,2.5299,2.5295,2.5295,2.5295,2.5295,0,2.5686,2.5665,2.5631,2.5598,2.5589,2.5569,2.5539,2.552,2.5501,2.5471,2.5462,2.5432,2.54,2.5374,2.5331,2.5318,2.5282,2.5277,2.5293,2.529,2.5277,2.5279,2.524,2.5233,2.5255,2.5254,2.5254,0,2.5673,2.5654,2.5619,2.5603,2.5587,2.5561,2.5542,2.552,2.5501,2.5465,2.5449,2.5416,2.5389,2.5337,2.5309,2.5276,2.527,2.5258,2.5264,2.5271,2.5269,2.527,2.5267,2.5257,2.5257,2.5257,2.5257,0,2.5652,2.5642,2.5618,2.5589,2.5568,2.5543,2.5518,2.5505,2.5478,2.5457,2.5425,2.5404,2.5361,2.5327,2.5291,2.5271,2.5259,2.5256,2.525,2.5256,2.5266,2.526,2.5291,2.5256,2.5257,2.5257,2.5257,2.5257,2.564,2.5622,2.5595,2.5567,2.5547,2.5524,2.5504,2.5483,2.5457,2.5422,2.541,2.5376,2.5345,2.5296,2.5275,2.5247,2.5246,2.5239,2.5237,2.5235,2.5236,2.5271,2.524,2.524,2.524,2.524,2.524,0,2.5617,2.5599,2.5574,2.5541,2.5519,2.5512,2.5484,2.5465,2.5437,2.541,2.5384,2.5346,2.5313,2.5284,2.5249,2.5233,2.5226,2.5224,2.5225,2.522,2.5239,2.5246,2.523,2.523,2.523,2.523,2.523,2.523,2.5603,2.5573,2.5561,2.552,2.5501,2.547,2.5455,2.5433,2.5411,2.5371,2.5345,2.5326,2.5298,2.5261,2.523,2.5222,2.521,2.5209,2.52,2.5217,2.5219,2.522,2.5227,2.5207,2.5207,2.5183,2.5183,2.5183]}]]